| time (UTC) | temp F | wind direction | speed MPH | gust MPH | rain 1hr in | rain 24hr in | rain mn in | humidity % | barometer mb |
| 20260901014522 | 66 | 163 | 0.0 | 0.0 | 0.00 | 0.01 | 0.01 | 97 | 1016.6 |
| 20260901013022 | 66 | 161 | 0.0 | 0.0 | 0.00 | 0.01 | 0.01 | 97 | 1016.7 |
| 20260901011521 | 66 | 161 | 0.0 | 0.0 | 0.00 | 0.01 | 0.01 | 96 | 1016.8 |
| 20260901010033 | 67 | 113 | 0.0 | 0.0 | 0.00 | 0.01 | 0.01 | 95 | 1016.8 |
| 20260901004520 | 68 | 76 | 0.0 | 0.0 | 0.00 | 0.01 | 0.01 | 94 | 1016.8 |
| 20260901003020 | 68 | 76 | 0.0 | 0.0 | 0.00 | 0.01 | 0.01 | 94 | 1016.6 |
| 20260901001524 | 69 | 76 | 0.0 | 0.0 | 0.00 | 0.01 | 0.01 | 93 | 1016.5 |
| 20260901000018 | 69 | 76 | 0.0 | 0.0 | 0.00 | 0.01 | 0.01 | 93 | 1016.5 |
| 20260831234518 | 69 | 68 | 0.0 | 0.0 | 0.00 | 0.01 | 0.01 | 92 | 1016.5 |
| 20260831233017 | 70 | 89 | 0.0 | 2.0 | 0.00 | 0.01 | 0.01 | 92 | 1016.6 |
| 20260831231515 | 70 | 46 | 1.0 | 5.0 | 0.00 | 0.01 | 0.01 | 92 | 1016.7 |
| 20260831230015 | 71 | 44 | 1.0 | 4.0 | 0.00 | 0.01 | 0.01 | 91 | 1016.8 |
| 20260831224512 | 71 | 13 | 0.0 | 2.0 | 0.00 | 0.01 | 0.01 | 90 | 1016.9 |
| 20260831223018 | 71 | 38 | 0.0 | 2.0 | 0.00 | 0.01 | 0.01 | 90 | 1016.9 |
| 20260831221523 | 71 | 49 | 0.0 | 3.0 | 0.00 | 0.01 | 0.01 | 90 | 1016.9 |
| 20260831220010 | 71 | 50 | 0.0 | 3.0 | 0.00 | 0.01 | 0.01 | 90 | 1017.0 |
| 20260831214508 | 71 | 55 | 1.0 | 4.0 | 0.00 | 0.01 | 0.01 | 89 | 1017.0 |
| 20260831213008 | 71 | 41 | 0.0 | 5.0 | 0.00 | 0.01 | 0.01 | 89 | 1017.0 |
| 20260831211507 | 72 | 46 | 3.0 | 5.0 | 0.00 | 0.01 | 0.01 | 86 | 1017.1 |
| 20260831210007 | 72 | 75 | 1.0 | 3.0 | 0.00 | 0.01 | 0.01 | 86 | 1017.3 |
| 20260831204504 | 72 | 292 | 0.0 | 1.0 | 0.00 | 0.01 | 0.01 | 86 | 1017.3 |
| 20260831203003 | 72 | 68 | 0.0 | 4.0 | 0.00 | 0.01 | 0.01 | 85 | 1017.4 |
| 20260831201503 | 72 | 55 | 0.0 | 3.0 | 0.00 | 0.01 | 0.01 | 85 | 1017.4 |
| 20260831200001 | 72 | 143 | 0.0 | 1.0 | 0.00 | 0.01 | 0.01 | 85 | 1017.5 |
| 20260831194502 | 72 | 201 | 0.0 | 0.0 | 0.00 | 0.01 | 0.01 | 84 | 1017.5 |
| 20260831193100 | 72 | 203 | 0.0 | 0.0 | 0.00 | 0.01 | 0.01 | 85 | 1017.6 |
| 20260831191558 | 72 | 166 | 0.0 | 3.0 | 0.00 | 0.01 | 0.01 | 85 | 1017.7 |
| 20260831190107 | 72 | 158 | 0.0 | 4.0 | 0.00 | 0.01 | 0.01 | 85 | 1017.8 |
| 20260831184610 | 73 | 158 | 1.0 | 5.0 | 0.00 | 0.02 | 0.01 | 84 | 1017.9 |
| 20260831183055 | 73 | 161 | 0.0 | 4.0 | 0.00 | 0.02 | 0.01 | 86 | 1018.1 |
| 20260831181552 | 72 | 152 | 1.0 | 4.0 | 0.00 | 0.02 | 0.01 | 85 | 1018.4 |
| 20260831180049 | 72 | 185 | 1.0 | 4.0 | 0.00 | 0.02 | 0.01 | 86 | 1018.5 |
| 20260831174556 | 71 | 198 | 0.0 | 5.0 | 0.00 | 0.02 | 0.01 | 87 | 1018.5 |
| 20260831173047 | 71 | 243 | 2.0 | 6.0 | 0.00 | 0.02 | 0.01 | 86 | 1018.7 |
| 20260831171549 | 71 | 189 | 3.0 | 6.0 | 0.00 | 0.02 | 0.01 | 85 | 1018.9 |
| 20260831170125 | 71 | 250 | 1.0 | 7.0 | 0.00 | 0.02 | 0.01 | 85 | 1019.0 |
| 20260831164546 | 71 | 240 | 2.0 | 6.0 | 0.00 | 0.02 | 0.01 | 85 | 1019.2 |
| 20260831163045 | 71 | 222 | 5.0 | 9.0 | 0.00 | 0.02 | 0.01 | 84 | 1019.1 |
| 20260831161544 | 71 | 221 | 3.0 | 7.0 | 0.00 | 0.02 | 0.01 | 85 | 1019.3 |
| 20260831160043 | 71 | 194 | 2.0 | 7.0 | 0.00 | 0.02 | 0.01 | 85 | 1019.2 |
| 20260831154549 | 71 | 231 | 3.0 | 7.0 | 0.00 | 0.02 | 0.01 | 85 | 1019.4 |
| 20260831153041 | 72 | 214 | 0.0 | 5.0 | 0.00 | 0.02 | 0.01 | 87 | 1019.3 |
| 20260831151540 | 71 | 213 | 3.0 | 6.0 | 0.00 | 0.02 | 0.01 | 86 | 1019.3 |
| 20260831150039 | 71 | 167 | 1.0 | 6.0 | 0.00 | 0.02 | 0.01 | 86 | 1019.2 |
| 20260831144539 | 71 | 127 | 2.0 | 6.0 | 0.00 | 0.02 | 0.01 | 86 | 1019.3 |
| 20260831143036 | 70 | 169 | 3.0 | 6.0 | 0.00 | 0.02 | 0.01 | 88 | 1019.4 |
| 20260831141533 | 70 | 99 | 3.0 | 6.0 | 0.00 | 0.02 | 0.01 | 90 | 1019.4 |
| 20260831140034 | 69 | 139 | 5.0 | 8.0 | 0.00 | 0.02 | 0.01 | 93 | 1019.3 |
| 20260831134527 | 68 | 158 | 5.0 | 8.0 | 0.00 | 0.03 | 0.01 | 98 | 1019.2 |
| 20260831133028 | 67 | 118 | 3.0 | 5.0 | 0.00 | 0.03 | 0.01 | 100 | 1019.1 |
| 20260831131523 | 65 | 103 | 2.0 | 6.0 | 0.00 | 0.03 | 0.01 | 100 | 1019.3 |
| 20260831130020 | 64 | 144 | 1.0 | 4.0 | 0.00 | 0.03 | 0.01 | 100 | 1019.4 |
| 20260831124518 | 63 | 143 | 0.0 | 3.0 | 0.00 | 0.08 | 0.01 | 100 | 1019.6 |
| 20260831123018 | 62 | 126 | 0.0 | 2.0 | 0.00 | 0.08 | 0.01 | 100 | 1019.6 |
| 20260831121519 | 61 | 117 | 0.0 | 0.0 | 0.00 | 0.08 | 0.01 | 100 | 1019.7 |
| 20260831120025 | 60 | 72 | 0.0 | 1.0 | 0.00 | 0.08 | 0.01 | 100 | 1019.9 |
| 20260831114516 | 59 | 112 | 0.0 | 2.0 | 0.00 | 0.09 | 0.01 | 100 | 1019.8 |
| 20260831113016 | 59 | 78 | 0.0 | 3.0 | 0.00 | 0.09 | 0.01 | 99 | 1019.8 |
| 20260831111523 | 59 | 79 | 0.0 | 0.0 | 0.00 | 0.09 | 0.01 | 99 | 1019.6 |
| 20260831110012 | 59 | 120 | 0.0 | 0.0 | 0.00 | 0.09 | 0.01 | 99 | 1019.2 |
| 20260831104516 | 59 | 120 | 0.0 | 0.0 | 0.00 | 0.10 | 0.01 | 99 | 1019.2 |
| 20260831103022 | 59 | 103 | 0.0 | 0.0 | 0.00 | 0.10 | 0.01 | 99 | 1019.0 |
| 20260831101510 | 59 | 103 | 0.0 | 0.0 | 0.00 | 0.10 | 0.01 | 100 | 1019.0 |
| 20260831100011 | 59 | 145 | 0.0 | 0.0 | 0.00 | 0.10 | 0.01 | 100 | 1019.1 |
| 20260831094520 | 58 | 207 | 0.0 | 0.0 | 0.00 | 0.10 | 0.01 | 100 | 1019.1 |
| 20260831093008 | 58 | 155 | 0.0 | 0.0 | 0.00 | 0.10 | 0.01 | 99 | 1018.9 |
| 20260831091507 | 57 | 157 | 0.0 | 0.0 | 0.00 | 0.10 | 0.01 | 99 | 1018.8 |
| 20260831090006 | 57 | 139 | 0.0 | 0.0 | 0.00 | 0.10 | 0.01 | 99 | 1018.8 |
| 20260831084504 | 58 | 137 | 0.0 | 0.0 | 0.01 | 0.10 | 0.01 | 99 | 1018.9 |
| 20260831083003 | 59 | 137 | 0.0 | 0.0 | 0.01 | 0.10 | 0.01 | 99 | 1018.7 |
| 20260831081601 | 59 | 137 | 0.0 | 0.0 | 0.01 | 0.10 | 0.01 | 99 | 1018.8 |
| 20260831080106 | 60 | 191 | 0.0 | 0.0 | 0.01 | 0.10 | 0.01 | 99 | 1019.0 |
| 20260831074555 | 61 | 191 | 0.0 | 0.0 | 0.00 | 0.09 | 0.00 | 99 | 1018.9 |
| 20260831073054 | 61 | 191 | 0.0 | 0.0 | 0.00 | 0.09 | 0.00 | 99 | 1019.0 |
| 20260831071552 | 61 | 201 | 0.0 | 0.0 | 0.00 | 0.09 | 0.00 | 99 | 1019.0 |
| 20260831070052 | 61 | 208 | 0.0 | 0.0 | 0.00 | 0.09 | 0.00 | 99 | 1018.9 |
| 20260831064551 | 61 | 208 | 0.0 | 0.0 | 0.00 | 0.09 | 0.00 | 99 | 1018.9 |
| 20260831063051 | 61 | 204 | 0.0 | 0.0 | 0.00 | 0.09 | 0.00 | 99 | 1019.0 |
| 20260831061550 | 61 | 166 | 0.0 | 0.0 | 0.00 | 0.09 | 0.00 | 98 | 1019.0 |
| 20260831060048 | 61 | 166 | 0.0 | 0.0 | 0.00 | 0.09 | 0.00 | 99 | 1019.1 |
| 20260831054548 | 61 | 141 | 0.0 | 0.0 | 0.00 | 0.09 | 0.00 | 98 | 1019.2 |
| 20260831053046 | 61 | 141 | 0.0 | 0.0 | 0.00 | 0.09 | 0.00 | 98 | 1019.3 |
| 20260831051545 | 62 | 141 | 0.0 | 0.0 | 0.00 | 0.09 | 0.00 | 98 | 1019.3 |
| 20260831050041 | 63 | 141 | 0.0 | 0.0 | 0.00 | 0.09 | 0.00 | 98 | 1019.2 |
| 20260831044540 | 63 | 141 | 0.0 | 0.0 | 0.00 | 0.09 | 0.00 | 98 | 1019.1 |
| 20260831043039 | 63 | 141 | 0.0 | 0.0 | 0.00 | 0.09 | 0.00 | 97 | 1019.2 |
| 20260831041549 | 63 | 229 | 0.0 | 0.0 | 0.00 | 0.09 | 0.00 | 97 | 1019.3 |
| 20260831040036 | 63 | 210 | 0.0 | 0.0 | 0.00 | 0.09 | 0.00 | 98 | 1019.2 |
| 20260831034535 | 63 | 211 | 0.0 | 0.0 | 0.00 | 0.09 | 0.09 | 97 | 1019.3 |
| 20260831033034 | 63 | 209 | 0.0 | 0.0 | 0.00 | 0.09 | 0.09 | 97 | 1019.2 |
| 20260831031541 | 63 | 220 | 0.0 | 0.0 | 0.00 | 0.09 | 0.09 | 97 | 1019.1 |
| 20260831030030 | 63 | 217 | 0.0 | 0.0 | 0.00 | 0.09 | 0.09 | 97 | 1018.9 |
| 20260831024529 | 64 | 163 | 0.0 | 0.0 | 0.00 | 0.09 | 0.09 | 97 | 1018.8 |
| 20260831023027 | 64 | 220 | 1.0 | 4.0 | 0.00 | 0.09 | 0.09 | 97 | 1018.7 |
| 20260831021527 | 64 | 239 | 2.0 | 4.0 | 0.00 | 0.09 | 0.09 | 96 | 1018.6 |
| 20260831020026 | 64 | 243 | 0.0 | 0.0 | 0.00 | 0.09 | 0.09 | 96 | 1018.6 |